N417JT KMDW-KGTU

Flight info

Callsign N417JT
Flight time N/A
Altitude 30000
Route ACITO ADELL ARLYN STL HRO PRX SSOLO
Aircraft SF50/L-BDGRSWY/LB2U2

Departure

Time 2026-05-04 18:14
Airport Chicago Midway International Airport (KMDW)

Arrival

Time N/A
Airport Georgetown Executive Airport at Johnny Gantt Field (KGTU)
Time Latitude Longitude Altitude Speed Heading
2026-05-04 18:13 41.69278 -87.85506 3945 ft 156 kts 221°
2026-05-04 18:14 41.68422 -87.86369 4568 ft 151 kts 223°
2026-05-04 18:14 41.67607 -87.87278 5091 ft 154 kts 224°
2026-05-04 18:14 41.66774 -87.88213 5582 ft 159 kts 225°
2026-05-04 18:15 41.65085 -87.90113 6713 ft 157 kts 226°
2026-05-04 18:15 41.63397 -87.92014 7739 ft 159 kts 226°
2026-05-04 18:15 41.62561 -87.92950 8296 ft 157 kts 226°
2026-05-04 18:16 41.61719 -87.93891 8806 ft 159 kts 226°
2026-05-04 18:16 41.60874 -87.94843 9324 ft 159 kts 226°
2026-05-04 18:16 41.60022 -87.95799 9814 ft 160 kts 226°
2026-05-04 18:17 41.58319 -87.97713 10779 ft 161 kts 227°
2026-05-04 18:17 41.57454 -87.98684 11272 ft 162 kts 227°
2026-05-04 18:17 41.55720 -88.00628 12217 ft 165 kts 227°
2026-05-04 18:18 41.54833 -88.01618 12700 ft 166 kts 227°
2026-05-04 18:18 41.53942 -88.02619 13169 ft 168 kts 227°
2026-05-04 18:18 41.53042 -88.03622 13614 ft 169 kts 227°
2026-05-04 18:18 41.52136 -88.04637 14030 ft 171 kts 227°
2026-05-04 18:19 41.50306 -88.06682 14840 ft 174 kts 227°
2026-05-04 18:19 41.49368 -88.07731 15240 ft 176 kts 227°
2026-05-04 18:19 41.48425 -88.08785 15646 ft 177 kts 227°
2026-05-04 18:20 41.47469 -88.09852 16020 ft 179 kts 227°
2026-05-04 18:20 41.46515 -88.10919 16400 ft 182 kts 227°
2026-05-04 18:20 41.45532 -88.12015 16790 ft 184 kts 227°
2026-05-04 18:20 41.44548 -88.13112 17173 ft 185 kts 227°
2026-05-04 18:21 41.43564 -88.14206 17552 ft 187 kts 227°
2026-05-04 18:21 41.42559 -88.15327 17920 ft 189 kts 227°
2026-05-04 18:21 41.41544 -88.16454 18255 ft 191 kts 227°
2026-05-04 18:21 41.40519 -88.17592 18566 ft 193 kts 226°
2026-05-04 18:22 41.39340 -88.18532 18876 ft 202 kts 212°
2026-05-04 18:22 41.37993 -88.19164 19192 ft 207 kts 207°
2026-05-04 18:22 41.36621 -88.19776 19517 ft 208 kts 207°
2026-05-04 18:22 41.35266 -88.20392 19832 ft 209 kts 207°
2026-05-04 18:23 41.33876 -88.21019 20147 ft 211 kts 207°
2026-05-04 18:23 41.32475 -88.21645 20448 ft 213 kts 207°
2026-05-04 18:23 41.31058 -88.22280 20774 ft 214 kts 206°
2026-05-04 18:23 41.29660 -88.22902 21117 ft 214 kts 206°
2026-05-04 18:24 41.28243 -88.23536 21463 ft 215 kts 206°
2026-05-04 18:24 41.26824 -88.24169 21816 ft 215 kts 206°
2026-05-04 18:24 41.25405 -88.24802 22162 ft 215 kts 206°
2026-05-04 18:24 41.23985 -88.25437 22511 ft 215 kts 206°
2026-05-04 18:25 41.22564 -88.26088 22856 ft 215 kts 206°
2026-05-04 18:25 41.21163 -88.26726 23196 ft 216 kts 206°
2026-05-04 18:25 41.19736 -88.27367 23500 ft 216 kts 206°
2026-05-04 18:25 41.18316 -88.28008 23794 ft 215 kts 206°
2026-05-04 18:26 41.17068 -88.28574 24065 ft 215 kts 206°
2026-05-04 18:26 41.15651 -88.29221 24378 ft 215 kts 206°
2026-05-04 18:26 41.14233 -88.29861 24690 ft 215 kts 206°
2026-05-04 18:26 41.12834 -88.30493 25009 ft 215 kts 206°